KB7STN Weather Reports


time (UTC)temp
F
wind
direction
speed
knots
gust
knots
rain 1hr
in
rain 24hr
in
rain mn
in
humidity
%
barometer
mb
20260901184022 73 163 1.7 7.8 0.00 0.36 0.00 51 1022.6
20260901183522 72 206 1.7 4.3 0.00 0.36 0.00 52 1022.8
20260901183022 72 207 1.7 4.3 0.00 0.36 0.00 53 1022.8
20260901182522 71 205 1.7 3.5 0.00 0.36 0.00 53 1022.7
20260901182022 72 211 2.6 6.1 0.00 0.36 0.00 52 1022.9
20260901181522 72 220 2.6 6.1 0.00 0.36 0.00 52 1022.9
20260901181022 72 225 1.7 6.1 0.00 0.36 0.00 52 1023.0
20260901180522 72 202 1.7 4.3 0.00 0.36 0.00 53 1022.9
20260901180022 71 202 1.7 4.3 0.00 0.36 0.00 52 1022.9
20260901175522 71 201 1.7 3.5 0.00 0.36 0.00 52 1022.9
20260901175022 72 200 2.6 4.3 0.00 0.36 0.00 51 1023.1
20260901174522 72 204 2.6 6.1 0.00 0.36 0.00 51 1023.0
20260901174022 72 193 1.7 3.5 0.00 0.36 0.00 51 1022.9
20260901173522 72 203 1.7 4.3 0.00 0.36 0.00 53 1023.0
20260901173022 72 201 2.6 4.3 0.00 0.36 0.00 52 1022.9
20260901172522 72 201 1.7 4.3 0.00 0.36 0.00 52 1022.8
20260901172022 71 202 1.7 4.3 0.00 0.36 0.00 52 1022.8
20260901171522 72 194 1.7 5.2 0.00 0.36 0.00 51 1022.9
20260901171022 71 222 2.6 6.1 0.00 0.36 0.00 52 1022.9
20260901170522 71 250 1.7 5.2 0.00 0.36 0.00 53 1022.9
20260901170022 71 181 1.7 4.3 0.00 0.36 0.00 51 1022.8
20260901165522 71 188 1.7 5.2 0.00 0.36 0.00 53 1022.9
20260901165022 71 180 2.6 5.2 0.00 0.36 0.00 52 1022.9
20260901164522 70 184 2.6 4.3 0.00 0.36 0.00 53 1022.8
20260901164022 70 207 2.6 5.2 0.00 0.36 0.00 54 1022.7
20260901163522 70 172 2.6 5.2 0.00 0.36 0.00 54 1022.7
20260901163022 69 196 2.6 6.1 0.00 0.36 0.00 54 1022.6
20260901162522 69 211 3.5 6.1 0.00 0.36 0.00 54 1022.7
20260901162022 69 218 2.6 6.1 0.00 0.36 0.00 53 1022.6
20260901161522 69 238 2.6 7.0 0.00 0.36 0.00 54 1022.5
20260901161022 69 213 2.6 5.2 0.00 0.36 0.00 52 1022.5
20260901160522 69 205 3.5 6.1 0.00 0.36 0.00 53 1022.4
20260901160022 68 179 3.5 7.0 0.00 0.36 0.00 53 1022.5
20260901155522 68 209 3.5 5.2 0.00 0.36 0.00 53 1022.3
20260901155022 68 214 2.6 7.0 0.00 0.36 0.00 53 1022.4
20260901154522 68 202 2.6 6.1 0.00 0.36 0.00 54 1022.3
20260901154022 68 190 1.7 3.5 0.00 0.36 0.00 53 1022.4
20260901153522 68 185 1.7 4.3 0.00 0.36 0.00 54 1022.5
20260901153022 67 188 1.7 4.3 0.00 0.36 0.00 55 1022.6
20260901152522 67 203 2.6 3.5 0.00 0.36 0.00 57 1022.7
20260901152022 66 215 2.6 7.0 0.00 0.36 0.00 57 1022.8
20260901151522 66 211 1.7 5.2 0.00 0.36 0.00 58 1022.8
20260901151022 65 221 1.7 3.5 0.00 0.36 0.00 61 1022.9
20260901150522 64 217 1.7 4.3 0.00 0.36 0.00 61 1022.8
20260901150022 63 220 1.7 5.2 0.00 0.36 0.00 61 1022.9
20260901145522 63 203 1.7 4.3 0.00 0.36 0.00 63 1022.8
20260901145022 63 202 1.7 3.5 0.00 0.36 0.00 62 1022.8
20260901144524 63 195 1.7 4.3 0.00 0.36 0.00 62 1022.8
20260901144022 64 179 1.7 5.2 0.00 0.36 0.00 60 1022.7
20260901143522 64 194 1.7 5.2 0.00 0.36 0.00 59 1022.6
20260901143022 64 221 1.7 6.1 0.00 0.36 0.00 59 1022.6
20260901142522 64 217 2.6 6.1 0.00 0.36 0.00 60 1022.5
20260901142022 63 180 2.6 7.0 0.00 0.36 0.00 61 1022.5
20260901141522 63 196 2.6 5.2 0.00 0.36 0.00 61 1022.6
20260901141022 63 203 2.6 7.8 0.00 0.36 0.00 60 1022.6
20260901140522 62 223 2.6 6.1 0.00 0.36 0.00 62 1022.5
20260901140022 62 202 2.6 6.1 0.00 0.36 0.00 63 1022.4
20260901135524 61 209 1.7 5.2 0.00 0.36 0.00 64 1022.5
20260901135023 61 237 1.7 5.2 0.00 0.36 0.00 65 1022.4
20260901134522 61 200 1.7 4.3 0.00 0.36 0.00 65 1022.3
20260901134022 60 198 2.6 5.2 0.00 0.36 0.00 65 1022.3
20260901133522 60 198 2.6 6.1 0.00 0.36 0.00 65 1022.4
20260901133022 60 233 1.7 6.1 0.00 0.36 0.00 66 1022.5
20260901132522 60 218 1.7 4.3 0.00 0.36 0.00 66 1022.5
20260901132022 60 208 2.6 10.4 0.00 0.36 0.00 65 1022.5
20260901131522 60 169 2.6 10.4 0.00 0.36 0.00 66 1022.4
20260901131022 60 178 1.7 4.3 0.00 0.36 0.00 66 1022.3
20260901130522 60 179 1.7 6.1 0.00 0.36 0.00 66 1022.3
20260901130022 60 188 1.7 7.0 0.00 0.36 0.00 66 1022.3
20260901125522 60 205 1.7 4.3 0.00 0.36 0.00 66 1022.2
20260901125023 60 203 0.9 3.5 0.00 0.36 0.00 66 1022.1
20260901124523 60 194 1.7 5.2 0.00 0.36 0.00 66 1022.1
20260901124023 60 182 1.7 5.2 0.00 0.36 0.00 67 1022.2
20260901123522 60 215 1.7 3.5 0.00 0.36 0.00 66 1022.2
20260901123022 60 217 1.7 3.5 0.00 0.36 0.00 66 1022.1
20260901122523 60 227 1.7 3.5 0.00 0.36 0.00 66 1022.1
20260901122023 60 232 1.7 3.5 0.00 0.36 0.00 66 1022.1
20260901121523 60 198 1.7 4.3 0.00 0.36 0.00 67 1022.2
20260901121023 60 204 2.6 4.3 0.00 0.36 0.00 68 1022.2
20260901120523 60 201 2.6 4.3 0.00 0.36 0.00 68 1022.3
20260901120023 60 221 2.6 6.1 0.00 0.36 0.00 68 1022.4
20260901115523 60 202 2.6 4.3 0.00 0.36 0.00 68 1022.3
20260901115023 60 205 1.7 5.2 0.00 0.36 0.00 69 1022.4
20260901114523 60 209 1.7 4.3 0.00 0.36 0.00 69 1022.2
20260901114023 60 182 1.7 4.3 0.00 0.36 0.00 69 1022.2
20260901113523 60 182 1.7 3.5 0.00 0.36 0.00 69 1022.1
20260901113023 60 178 1.7 5.2 0.00 0.36 0.00 69 1022.1
20260901112523 60 184 1.7 4.3 0.00 0.36 0.00 68 1022.0
20260901112023 60 189 1.7 3.5 0.00 0.36 0.00 68 1022.0
20260901111523 60 186 1.7 4.3 0.00 0.36 0.00 68 1022.0
20260901111023 60 189 1.7 4.3 0.00 0.36 0.00 68 1022.0
20260901110523 60 189 1.7 3.5 0.00 0.36 0.00 68 1022.2
20260901110023 60 184 1.7 3.5 0.00 0.36 0.00 68 1022.2
20260901105523 60 192 1.7 3.5 0.00 0.36 0.00 68 1022.2
20260901105023 60 207 1.7 5.2 0.00 0.36 0.00 68 1022.2
20260901104523 60 189 2.6 4.3 0.00 0.36 0.00 69 1022.2
20260901104023 60 207 2.6 5.2 0.00 0.36 0.00 69 1022.2
20260901103523 60 183 2.6 6.1 0.00 0.36 0.00 70 1022.2
20260901103023 59 171 2.6 4.3 0.00 0.36 0.00 70 1022.2
20260901102523 59 158 2.6 7.0 0.00 0.36 0.00 71 1022.3
20260901102023 59 160 2.6 7.8 0.00 0.36 0.00 71 1022.3
20260901101523 59 207 1.7 6.1 0.00 0.36 0.00 71 1022.4
20260901101023 59 211 1.7 5.2 0.00 0.36 0.00 72 1022.4
20260901100523 59 215 2.6 7.0 0.00 0.36 0.00 72 1022.4
20260901100023 59 217 1.7 4.3 0.00 0.36 0.00 72 1022.4
20260901095523 59 218 0.9 3.5 0.00 0.36 0.00 72 1022.5
20260901095023 59 218 1.7 5.2 0.00 0.36 0.00 72 1022.5
20260901094523 59 216 1.7 5.2 0.00 0.36 0.00 71 1022.6
20260901094023 59 215 0.9 3.5 0.00 0.36 0.00 71 1022.5
20260901093523 59 215 0.9 2.6 0.00 0.36 0.00 70 1022.6
20260901093023 59 215 1.7 3.5 0.00 0.36 0.00 70 1022.3
20260901092523 60 215 1.7 4.3 0.00 0.36 0.00 70 1022.3
20260901092027 60 215 1.7 3.5 0.00 0.36 0.00 70 1022.2
20260901091523 60 219 1.7 4.3 0.00 0.36 0.00 70 1022.3
20260901091023 59 219 1.7 5.2 0.00 0.36 0.00 71 1022.3
20260901090523 59 219 1.7 4.3 0.00 0.36 0.00 71 1022.3
20260901090023 59 219 0.9 4.3 0.00 0.36 0.00 72 1022.3
20260901085523 59 220 0.9 3.5 0.00 0.36 0.00 72 1022.4
20260901085023 59 220 0.9 2.6 0.00 0.36 0.00 72 1022.4
20260901084523 59 219 1.7 3.5 0.00 0.36 0.00 72 1022.4
20260901084023 59 219 1.7 4.3 0.00 0.36 0.00 73 1022.4
20260901083523 59 220 1.7 6.1 0.00 0.36 0.00 73 1022.5
20260901083023 58 224 0.9 5.2 0.00 0.36 0.00 74 1022.5
20260901082523 58 226 0.9 1.7 0.00 0.36 0.00 74 1022.6
20260901082023 59 226 1.7 3.5 0.00 0.36 0.00 73 1022.7
20260901081523 59 226 1.7 4.3 0.00 0.36 0.00 73 1022.6
20260901081023 59 225 1.7 4.3 0.00 0.36 0.00 73 1022.6
20260901080523 59 225 1.7 4.3 0.00 0.36 0.00 73 1022.7
20260901080023 59 225 1.7 3.5 0.00 0.36 0.00 72 1022.8
20260901075523 59 225 1.7 3.5 0.00 0.36 0.00 71 1022.8
20260901075023 60 225 1.7 6.1 0.00 0.36 0.00 71 1022.7
20260901074523 60 225 1.7 5.2 0.00 0.36 0.00 70 1022.7
20260901074023 60 225 1.7 5.2 0.00 0.36 0.00 70 1022.7
20260901073523 60 225 1.7 4.3 0.00 0.36 0.00 69 1022.7
20260901073023 60 225 1.7 4.3 0.00 0.36 0.00 69 1022.8
20260901072523 61 225 1.7 3.5 0.00 0.36 0.00 68 1022.7
20260901072023 61 225 1.7 4.3 0.00 0.36 0.00 68 1022.6
20260901071523 61 225 1.7 4.3 0.00 0.36 0.00 69 1022.6
20260901071023 61 225 1.7 3.5 0.00 0.36 0.00 69 1022.7
20260901070523 61 225 1.7 4.3 0.00 0.36 0.00 69 1022.7
20260901070023 60 225 1.7 8.7 0.00 0.36 0.00 69 1022.6
20260901065523 60 223 1.7 6.1 0.00 0.36 0.00 69 1022.6
20260901065023 60 212 1.7 4.3 0.00 0.36 0.00 70 1022.6
20260901064523 60 219 0.9 3.5 0.00 0.36 0.00 70 1022.5
20260901064023 60 219 1.7 2.6 0.00 0.36 0.00 70 1022.7
20260901063523 61 219 1.7 4.3 0.00 0.36 0.00 70 1022.7
20260901063023 61 221 1.7 4.3 0.00 0.36 0.00 70 1022.8
20260901062523 60 221 1.7 4.3 0.00 0.36 0.00 69 1022.7
20260901062023 60 219 1.7 7.0 0.00 0.36 0.00 71 1022.6
20260901061523 60 232 1.7 5.2 0.00 0.36 0.00 71 1022.6
20260901061023 60 233 1.7 6.1 0.00 0.36 0.00 71 1022.7
20260901060523 60 230 0.9 3.5 0.00 0.36 0.00 71 1022.8
20260901060023 60 230 0.9 4.3 0.00 0.36 0.00 71 1022.8
20260901055523 60 229 0.9 6.1 0.00 0.36 0.36 71 1022.7
20260901055023 60 232 0.0 2.6 0.00 0.36 0.36 71 1022.6
20260901054523 60 232 0.0 1.7 0.00 0.36 0.36 71 1022.7
20260901054023 60 232 0.9 1.7 0.00 0.36 0.36 72 1022.7
20260901053523 60 232 1.7 3.5 0.00 0.36 0.36 72 1022.6
20260901053023 59 232 0.9 3.5 0.00 0.36 0.36 73 1022.6
20260901052523 59 232 0.9 1.7 0.00 0.36 0.36 74 1022.7
20260901052023 59 232 0.0 1.7 0.00 0.36 0.36 75 1022.8
20260901051523 59 232 0.9 1.7 0.00 0.36 0.36 75 1023.2
20260901051023 59 232 0.9 3.5 0.00 0.36 0.36 76 1023.1
20260901050523 59 232 0.0 0.9 0.00 0.36 0.36 77 1023.2
20260901050023 59 232 0.0 0.9 0.00 0.36 0.36 76 1023.2
20260901045523 59 232 0.0 1.7 0.00 0.36 0.36 76 1023.2
20260901045023 59 232 0.0 1.7 0.00 0.36 0.36 76 1023.3
20260901044523 59 232 0.0 3.5 0.00 0.36 0.36 75 1023.4
20260901044023 59 232 0.0 3.5 0.00 0.36 0.36 75 1023.4
20260901043523 59 232 0.9 1.7 0.00 0.36 0.36 75 1023.4
20260901043023 60 232 0.9 5.2 0.00 0.36 0.36 74 1023.3
20260901042523 60 232 0.9 5.2 0.00 0.36 0.36 74 1023.4
20260901042023 60 232 0.9 4.3 0.00 0.36 0.36 74 1023.4
20260901041523 60 231 0.9 3.5 0.00 0.36 0.36 73 1023.5
20260901041023 60 231 0.9 3.5 0.00 0.36 0.36 72 1023.5
20260901040523 60 231 0.9 1.7 0.00 0.36 0.36 72 1023.5
20260901040023 60 231 0.9 4.3 0.00 0.36 0.36 72 1023.4
20260901035523 60 231 0.9 5.2 0.00 0.36 0.36 72 1023.3
20260901035023 60 230 0.9 0.9 0.00 0.36 0.36 72 1023.3
20260901034523 60 230 1.7 3.5 0.00 0.36 0.36 72 1023.2
20260901034023 60 230 1.7 3.5 0.00 0.36 0.36 72 1023.2
20260901033523 60 232 1.7 4.3 0.00 0.36 0.36 71 1023.1
20260901033023 60 238 2.6 5.2 0.00 0.36 0.36 71 1023.0
20260901032523 60 232 1.7 5.2 0.00 0.36 0.36 72 1022.9
20260901032023 59 234 0.9 4.3 0.00 0.36 0.36 73 1022.9
20260901031523 60 234 0.9 1.7 0.00 0.36 0.36 78 1022.9
20260901031023 60 234 0.9 4.3 0.00 0.36 0.36 79 1022.9
20260901030523 60 234 0.9 1.7 0.00 0.36 0.36 78 1023.0
20260901030023 60 234 0.9 2.6 0.00 0.36 0.36 77 1023.0
20260901025523 60 234 0.9 4.3 0.00 0.36 0.36 78 1022.9
20260901025023 60 234 0.9 2.6 0.00 0.36 0.36 78 1022.9
20260901024523 60 234 0.9 2.6 0.00 0.36 0.36 77 1022.8
20260901024023 60 234 0.9 3.5 0.00 0.36 0.36 77 1022.8
20260901023523 60 234 0.9 4.3 0.00 0.36 0.36 76 1022.6
20260901023023 60 234 0.0 0.0 0.00 0.36 0.36 75 1022.7
20260901022523 60 234 0.0 2.6 0.00 0.36 0.36 74 1022.7
20260901022023 60 234 0.0 1.7 0.00 0.36 0.36 74 1022.7
20260901021523 61 234 0.9 0.0 0.00 0.36 0.36 73 1022.7
20260901021023 61 234 0.9 3.5 0.00 0.36 0.36 72 1022.8
20260901020523 61 234 0.9 2.6 0.00 0.36 0.36 72 1022.9
20260901020023 61 234 0.9 3.5 0.00 0.36 0.36 71 1023.0
20260901015523 61 234 0.9 2.6 0.00 0.36 0.36 70 1023.0
20260901015023 61 234 0.9 0.9 0.00 0.36 0.36 69 1023.0
20260901014523 61 234 0.9 5.2 0.00 0.36 0.36 69 1023.0
20260901014023 61 235 0.9 2.6 0.00 0.36 0.36 69 1023.1
20260901013523 61 235 0.9 4.3 0.00 0.36 0.36 70 1023.2
20260901013024 61 236 1.7 4.3 0.00 0.36 0.36 70 1023.4
20260901012524 61 233 1.7 4.3 0.00 0.36 0.36 69 1023.5
20260901012024 61 225 0.9 4.3 0.00 0.36 0.36 69 1023.3
20260901011524 61 236 0.9 2.6 0.00 0.36 0.36 69 1023.3
20260901011024 61 238 1.7 6.1 0.00 0.36 0.36 69 1023.3
20260901010524 61 227 1.7 6.1 0.00 0.36 0.36 70 1023.3
20260901010024 61 211 1.7 6.1 0.00 0.36 0.36 71 1023.3
20260901005524 61 234 1.7 5.2 0.01 0.36 0.36 71 1023.4
20260901005024 61 244 1.7 7.0 0.01 0.36 0.36 72 1023.6
20260901004524 61 225 1.7 6.1 0.01 0.36 0.36 71 1023.5
20260901004024 60 261 1.7 7.0 0.01 0.36 0.36 71 1023.7
20260901003524 60 267 1.7 7.0 0.01 0.36 0.36 71 1023.8
20260901003024 60 212 1.7 6.1 0.01 0.36 0.36 70 1023.7
20260901002524 60 271 1.7 5.2 0.01 0.36 0.36 71 1023.7
20260901002024 60 273 1.7 3.5 0.02 0.36 0.36 72 1023.6
20260901001524 61 274 0.9 3.5 0.02 0.36 0.36 73 1023.7
20260901001024 61 275 0.9 3.5 0.03 0.36 0.36 74 1023.7
20260901000524 61 275 0.9 4.3 0.03 0.36 0.36 72 1023.5
20260901000024 61 275 0.0 1.7 0.04 0.36 0.36 72 1023.4
20260831235524 61 275 0.9 3.5 0.03 0.35 0.35 72 1023.2
20260831235024 60 275 0.9 4.3 0.03 0.35 0.35 73 1022.9
20260831234524 60 275 0.0 0.0 0.09 0.35 0.35 75 1022.8
20260831234024 61 275 0.9 4.3 0.22 0.35 0.35 75 1022.7
20260831233524 61 275 1.7 8.7 0.30 0.35 0.35 74 1022.4
20260831233024 61 275 1.7 8.7 0.35 0.35 0.35 75 1022.2
20260831232524 61 273 1.7 8.7 0.35 0.35 0.35 76 1021.9
20260831232024 61 270 0.9 6.1 0.34 0.34 0.34 79 1021.7
20260831231524 61 270 0.9 6.1 0.34 0.34 0.34 80 1021.7
20260831231024 60 268 0.9 5.2 0.33 0.33 0.33 81 1021.6
20260831230524 61 268 0.0 3.5 0.33 0.33 0.33 80 1021.4
20260831230024 61 268 0.0 0.0 0.32 0.32 0.32 79 1021.4
20260831225524 62 268 0.0 0.0 0.32 0.32 0.32 76 1021.3
20260831225024 63 268 0.9 2.6 0.32 0.32 0.32 73 1021.5
20260831224524 65 268 2.6 7.8 0.26 0.26 0.26 68 1021.3
20260831224024 67 264 5.2 14.8 0.13 0.13 0.13 59 1020.8
20260831223524 72 274 4.3 12.2 0.05 0.05 0.05 51 1020.3
20260831223024 74 259 3.5 12.2 0.00 0.00 0.00 44 1020.1
20260831222524 74 262 3.5 7.0 0.00 0.00 0.00 42 1019.2
20260831222024 74 221 3.5 7.8 0.00 0.00 0.00 42 1018.7
20260831221524 75 217 3.5 6.1 0.00 0.00 0.00 41 1018.7
20260831221024 75 192 2.6 6.1 0.00 0.00 0.00 43 1018.7
20260831220524 76 215 2.6 6.1 0.00 0.00 0.00 43 1018.5
20260831220024 76 207 3.5 9.6 0.00 0.00 0.00 45 1018.4
20260831215524 77 231 3.5 7.8 0.00 0.00 0.00 45 1018.2
20260831215024 77 225 3.5 7.8 0.00 0.00 0.00 45 1018.2
20260831214524 78 223 3.5 5.2 0.00 0.00 0.00 45 1018.2
20260831214024 78 224 3.5 6.1 0.00 0.00 0.00 44 1018.3
20260831213524 79 205 4.3 11.3 0.00 0.00 0.00 43 1018.4
20260831213024 80 223 3.5 7.8 0.00 0.00 0.00 40 1018.5
20260831212524 80 227 2.6 6.1 0.00 0.00 0.00 36 1018.5
20260831212024 80 223 1.7 6.1 0.00 0.00 0.00 38 1018.6
20260831211524 81 204 1.7 5.2 0.00 0.00 0.00 38 1018.6
20260831211024 80 175 2.6 2.6 0.00 0.00 0.00 38 1018.6
20260831210524 80 186 2.6 5.2 0.00 0.00 0.00 37 1018.6
20260831210024 80 178 2.6 5.2 0.00 0.00 0.00 37 1018.6
20260831205524 80 217 2.6 7.0 0.00 0.00 0.00 37 1018.6
20260831205024 80 153 2.6 7.0 0.00 0.00 0.00 39 1018.6
20260831204524 80 219 3.5 7.0 0.00 0.00 0.00 37 1018.7
20260831204024 80 206 3.5 8.7 0.00 0.00 0.00 39 1018.9
20260831203524 79 155 2.6 6.1 0.00 0.00 0.00 39 1019.1
20260831203024 79 167 2.6 7.8 0.00 0.00 0.00 39 1019.0
20260831202524 80 177 2.6 4.3 0.00 0.00 0.00 38 1019.2
20260831202024 79 184 3.5 10.4 0.00 0.00 0.00 39 1019.2
20260831201524 79 198 2.6 6.1 0.00 0.00 0.00 39 1019.2
20260831201024 79 196 3.5 7.0 0.00 0.00 0.00 39 1019.4
20260831200524 80 165 3.5 7.0 0.00 0.00 0.00 41 1019.3
20260831200024 80 172 3.5 6.1 0.00 0.00 0.00 40 1019.4
20260831195524 80 200 3.5 7.0 0.00 0.00 0.00 40 1019.5
20260831195024 79 171 2.6 6.1 0.00 0.00 0.00 41 1019.7
20260831194524 79 166 3.5 6.1 0.00 0.00 0.00 42 1019.7
20260831194024 79 182 3.5 6.1 0.00 0.00 0.00 41 1019.8
20260831193524 79 182 4.3 7.8 0.00 0.00 0.00 40 1019.9
20260831193024 79 166 4.3 10.4 0.00 0.00 0.00 41 1020.0
20260831192524 79 168 4.3 8.7 0.00 0.00 0.00 39 1020.1
20260831192024 79 184 3.5 7.8 0.00 0.00 0.00 39 1020.2
20260831191524 79 194 3.5 7.0 0.00 0.00 0.00 40 1020.2
20260831191024 80 165 3.5 7.0 0.00 0.00 0.00 39 1020.2
20260831190524 80 181 3.5 9.6 0.00 0.00 0.00 39 1020.3
20260831190024 80 180 2.6 7.8 0.00 0.00 0.00 38 1020.4
20260831185524 81 192 1.7 6.1 0.00 0.00 0.00 38 1020.4
20260831185024 81 228 1.7 6.1 0.00 0.00 0.00 40 1020.5
20260831184524 80 200 2.6 6.1 0.00 0.00 0.00 39 1020.6